Wind_Speed
46 46 46 44 42 40 39 38 37 36 35 37 37 38 40 41 43 44 45 46 47 48 48 48 48 47 46 45 43 41 39 38 36 34 33 31 30 30
46 46 44 42 40 38 37 37 37 37 37 38 38 40 41 42 44 45 46 46 47 48 48 48 47 47 46 44 41 40 38 36 34 33 32 31 30 29
45 43 41 39 39 39 38 38 38 38 38 39 40 41 42 43 45 45 46 46 47 47 47 46 46 45 44 42 40 38 36 35 34 32 31 30 29 28
42 41 41 41 41 40 39 39 40 40 40 40 41 42 43 44 44 44 45 45 46 46 45 45 44 43 42 40 38 37 35 33 32 30 29 28 26 26
42 42 41 41 40 40 40 40 41 41 41 41 41 42 43 44 44 44 45 45 45 44 44 43 42 42 40 38 36 34 32 31 30 28 26 25 24 24
42 41 41 41 41 41 41 42 42 41 42 42 42 43 43 43 43 43 43 43 43 43 42 42 41 39 37 35 33 31 30 29 28 26 24 23 22 22
43 43 43 43 43 43 43 43 43 43 43 43 43 43 43 43 43 42 42 42 42 42 41 39 37 36 34 32 31 29 28 26 25 24 23 22 22 22
46 45 45 45 45 44 44 44 44 44 44 44 44 43 43 42 41 41 41 41 41 40 38 36 35 33 32 30 29 28 27 25 24 23 22 22 22 22
48 47 47 46 46 46 46 46 46 46 45 45 44 43 42 41 40 40 40 40 39 38 35 34 32 31 29 28 28 27 26 25 24 23 22 22 21 22
48 48 48 48 47 47 47 47 47 47 45 44 44 42 41 40 40 39 39 38 37 35 33 32 30 29 28 27 26 25 25 24 23 22 22 21 21 21
50 50 50 49 48 48 47 47 47 46 45 44 42 41 40 39 39 39 38 36 35 34 32 31 29 28 27 26 25 24 23 23 22 22 22 21 22 22
51 50 50 49 48 47 47 46 45 44 43 42 41 40 39 39 38 38 37 35 34 33 31 30 29 27 26 25 24 23 23 23 23 23 23 23 23 23
50 49 48 48 47 46 46 45 44 44 43 42 40 40 39 38 37 37 35 34 33 32 30 29 28 27 26 25 24 24 23 23 23 23 23 23 24 24
49 49 48 47 47 46 46 45 44 43 42 41 40 39 38 37 37 36 34 33 32 31 29 28 27 26 25 25 24 24 24 23 23 23 23 24 24 25
50 49 48 47 46 46 45 44 43 42 41 41 40 39 38 37 36 35 34 33 31 30 29 28 27 26 25 24 24 24 24 24 24 24 24 25 25 25
50 49 49 47 46 45 44 43 42 42 41 40 39 39 38 37 35 34 33 32 31 30 29 27 27 26 26 26 25 25 25 25 25 25 26 26 27 27
50 50 48 47 46 45 44 43 42 41 40 40 39 38 37 36 35 33 32 32 31 30 29 28 27 27 27 26 26 26 26 26 26 27 27 28 28 28
50 48 47 46 45 44 42 42 41 41 40 39 38 37 36 35 34 33 32 32 30 29 29 28 28 27 27 27 27 27 28 28 28 28 28 28 29 30
48 47 46 45 44 43 42 41 40 40 39 39 38 37 36 35 34 33 32 32 31 30 29 29 29 28 28 28 28 28 29 29 29 29 29 29 30 30
46 45 45 44 43 42 41 41 40 39 39 38 37 36 35 35 34 33 33 32 31 31 30 30 29 29 28 28 29 29 30 29 30 30 30 31 32 33
45 44 44 43 42 41 40 40 39 39 38 37 36 36 35 34 34 33 33 32 32 31 30 30 30 29 29 30 30 31 31 31 31 31 32 32 33 34
44 43 42 42 41 41 40 39 39 38 37 37 36 36 35 35 34 33 33 32 32 32 31 31 30 30 31 31 32 32 33 33 33 33 33 34 34 35
43 43 42 41 40 40 39 39 38 37 36 35 35 35 35 35 34 34 33 33 32 32 32 32 31 31 32 32 33 34 34 34 34 34 35 36 36 37
Wind_Direction
261 262 262 263 266 267 268 271 273 276 278 282 284 288 290 293 294 295 296 297 297 297 297 298 298 298 298 297 296 295 292 290 287 284 281 277 273 268
260 262 262 263 264 266 268 271 274 276 278 281 283 286 289 291 293 293 294 295 295 296 296 296 297 297 297 295 294 293 291 289 286 283 280 276 272 266
260 260 260 262 264 267 271 272 274 276 278 280 283 286 288 290 291 292 293 294 294 295 295 296 297 297 295 294 292 292 290 288 286 282 279 275 271 264
259 260 262 264 266 268 269 270 273 275 277 281 283 285 287 289 290 291 292 293 294 294 295 295 295 295 294 293 292 290 289 286 284 282 277 272 267 261
260 262 263 264 265 266 268 270 274 276 278 281 282 284 286 287 289 290 291 292 293 294 294 294 294 294 293 292 290 289 287 285 283 281 275 268 263 257
261 262 263 263 264 266 269 272 274 276 278 279 281 283 285 286 288 289 290 292 293 293 294 294 294 293 292 290 288 287 286 284 282 278 272 266 262 255
259 261 262 264 266 269 270 271 273 275 277 278 280 282 283 285 286 288 289 291 292 293 294 293 292 291 291 289 287 285 284 281 278 274 270 265 259 255
261 262 263 264 266 267 269 271 273 274 275 277 279 281 282 284 285 286 288 290 291 292 292 291 290 289 289 287 285 282 281 278 276 272 268 264 261 256
261 262 262 263 264 266 268 270 272 274 274 276 277 279 281 282 284 285 287 289 290 290 289 288 288 287 286 286 284 282 280 277 275 270 266 263 260 255
260 261 262 263 264 266 268 269 271 272 273 274 275 277 278 280 282 284 286 287 287 287 286 286 285 284 284 283 282 280 278 276 274 269 265 262 259 255
259 260 261 261 263 264 266 268 269 270 271 272 273 275 277 279 280 282 284 284 284 284 284 283 282 282 282 280 279 278 276 274 271 268 265 263 261 258
258 258 259 259 261 263 264 265 266 267 269 270 272 274 275 277 278 280 281 281 281 281 281 280 280 279 278 277 276 275 274 273 271 268 266 264 262 259
255 256 257 258 259 260 262 263 263 265 266 268 270 272 273 274 276 277 278 279 278 278 278 278 278 276 275 273 273 272 272 272 271 270 267 265 262 260
253 253 254 255 256 257 259 260 261 262 264 266 267 269 270 272 273 274 276 276 276 276 275 276 275 274 272 271 270 270 271 272 271 270 268 267 265 263
250 251 252 253 253 254 256 258 259 260 262 263 264 266 267 269 271 272 273 273 273 273 274 274 272 270 269 269 270 271 271 271 270 270 269 268 266 264
248 249 249 250 251 253 255 257 258 258 259 261 262 263 265 267 268 269 270 270 271 271 271 271 270 269 269 269 270 271 271 271 271 271 271 270 268 266
247 247 249 250 250 252 253 254 255 257 258 259 260 262 263 264 265 266 267 268 269 268 268 268 267 268 268 269 269 270 272 272 272 273 273 272 270 268
245 246 247 248 249 250 251 253 254 256 256 257 258 260 261 261 262 263 264 266 267 266 267 267 267 267 268 269 270 270 272 273 273 274 273 272 272 271
243 244 244 245 246 248 249 251 253 254 255 255 257 258 258 259 260 261 262 264 264 264 265 266 266 267 268 269 270 271 272 273 273 273 273 273 273 273
241 242 243 243 244 246 247 249 251 252 253 254 255 256 256 257 258 259 261 262 263 263 264 265 266 267 268 269 270 271 272 273 274 274 274 275 275 275
239 239 241 242 243 244 246 247 249 250 251 252 253 254 255 256 257 258 260 261 262 262 263 265 266 268 268 269 271 272 274 274 275 275 275 276 277 277
237 237 238 239 240 242 244 245 247 248 249 250 251 253 254 255 256 258 260 261 261 261 262 265 267 268 269 270 272 274 275 275 276 276 276 277 278 278
234 235 235 237 239 241 243 244 245 247 247 248 250 252 253 255 256 258 259 260 260 261 262 264 266 269 270 272 273 275 276 276 277 278 278 278 279 279
Height
5735 5737 5738 5739 5740 5740 5741 5742 5743 5743 5743 5742 5741 5739 5737 5735 5733 5731 5728 5724 5721 5717 5713 5709 5706 5702 5698 5695 5692 5689 5686 5685 5683 5682 5681 5681 5681 5681
5724 5726 5727 5728 5729 5730 5731 5731 5731 5732 5732 5732 5730 5729 5727 5725 5722 5720 5717 5714 5710 5706 5703 5699 5695 5691 5688 5685 5682 5679 5677 5675 5674 5673 5672 5672 5672 5673
5713 5715 5716 5717 5719 5719 5720 5720 5721 5721 5721 5721 5719 5718 5716 5714 5711 5709 5706 5703 5699 5695 5692 5688 5685 5681 5678 5675 5672 5669 5667 5666 5665 5664 5663 5663 5664 5665
5702 5703 5705 5706 5707 5708 5709 5709 5710 5709 5710 5709 5708 5707 5705 5703 5700 5698 5695 5691 5688 5685 5681 5677 5674 5671 5668 5665 5662 5660 5658 5657 5656 5655 5655 5655 5656 5657
5691 5692 5693 5695 5696 5697 5697 5698 5698 5698 5698 5698 5697 5695 5694 5692 5689 5686 5684 5681 5677 5674 5670 5667 5664 5661 5658 5655 5653 5651 5650 5649 5648 5647 5647 5648 5649 5650
5679 5680 5681 5683 5684 5685 5686 5686 5686 5686 5686 5686 5685 5684 5682 5680 5678 5676 5673 5670 5667 5664 5660 5657 5654 5651 5649 5646 5644 5643 5642 5641 5640 5640 5640 5641 5642 5643
5666 5668 5669 5670 5672 5673 5673 5674 5674 5674 5674 5674 5673 5672 5671 5669 5667 5665 5662 5659 5656 5653 5650 5647 5645 5642 5640 5638 5636 5635 5634 5634 5633 5633 5633 5634 5635 5637
5653 5655 5656 5657 5659 5660 5661 5661 5662 5662 5662 5662 5661 5660 5659 5658 5656 5654 5651 5649 5646 5644 5641 5638 5636 5634 5632 5631 5629 5628 5627 5627 5627 5627 5627 5628 5629 5631
5639 5641 5642 5644 5645 5647 5647 5648 5649 5649 5649 5650 5649 5648 5648 5646 5645 5643 5641 5639 5636 5634 5632 5629 5628 5626 5624 5623 5622 5621 5620 5620 5620 5620 5621 5622 5623 5624
5625 5627 5628 5630 5632 5633 5634 5635 5636 5637 5637 5637 5637 5637 5636 5635 5634 5632 5630 5628 5626 5624 5622 5621 5619 5618 5617 5616 5615 5614 5614 5614 5613 5614 5614 5615 5616 5618
5610 5612 5614 5616 5617 5619 5621 5622 5623 5624 5624 5625 5625 5625 5624 5623 5622 5621 5620 5618 5617 5615 5614 5613 5611 5610 5609 5608 5608 5607 5607 5607 5607 5607 5608 5609 5610 5611
5594 5596 5598 5601 5603 5605 5607 5609 5610 5611 5612 5613 5613 5613 5613 5612 5611 5611 5610 5609 5607 5607 5605 5604 5603 5602 5602 5601 5601 5601 5600 5600 5601 5601 5601 5602 5603 5604
5578 5581 5583 5586 5588 5591 5593 5595 5597 5598 5599 5600 5601 5601 5601 5601 5601 5600 5600 5599 5598 5597 5596 5595 5595 5594 5594 5594 5594 5594 5593 5593 5594 5594 5594 5595 5596 5597
5563 5566 5569 5571 5574 5577 5579 5581 5583 5585 5587 5588 5589 5589 5590 5590 5590 5590 5589 5589 5589 5588 5587 5587 5586 5586 5586 5586 5586 5586 5586 5586 5586 5587 5587 5587 5588 5589
5547 5550 5553 5556 5559 5562 5565 5568 5570 5572 5574 5575 5577 5577 5578 5579 5579 5579 5579 5579 5579 5578 5578 5578 5578 5578 5578 5578 5578 5578 5579 5579 5579 5579 5579 5580 5580 5581
5530 5534 5538 5541 5545 5548 5552 5554 5557 5559 5561 5563 5564 5566 5567 5568 5568 5569 5569 5570 5569 5569 5569 5569 5569 5570 5570 5570 5570 5570 5571 5571 5571 5571 5571 5571 5572 5572
5514 5518 5523 5527 5531 5535 5538 5541 5544 5546 5549 5551 5552 5554 5555 5557 5558 5558 5559 5560 5560 5560 5560 5561 5561 5561 5561 5562 5562 5562 5562 5562 5563 5563 5562 5562 5562 5563
5498 5503 5508 5513 5517 5521 5525 5528 5531 5533 5536 5538 5541 5542 5544 5546 5547 5548 5549 5550 5550 5550 5551 5551 5552 5552 5553 5553 5553 5553 5553 5553 5554 5553 5553 5553 5553 5553
5483 5489 5494 5499 5504 5508 5511 5515 5518 5521 5524 5526 5529 5531 5533 5534 5536 5537 5538 5539 5540 5541 5541 5542 5543 5543 5543 5544 5544 5544 5544 5544 5544 5544 5544 5543 5543 5543
5469 5475 5481 5486 5490 5494 5498 5502 5505 5508 5512 5514 5517 5519 5521 5523 5525 5527 5528 5529 5530 5531 5532 5532 5533 5533 5534 5534 5534 5534 5534 5534 5534 5534 5533 5533 5532 5532
5455 5461 5467 5472 5477 5481 5485 5489 5493 5496 5500 5503 5505 5508 5510 5512 5514 5516 5517 5519 5520 5521 5522 5522 5523 5524 5524 5524 5524 5524 5524 5524 5524 5523 5523 5522 5521 5521
5441 5448 5453 5459 5464 5469 5473 5477 5481 5485 5488 5491 5494 5497 5499 5501 5503 5505 5507 5508 5509 5511 5511 5512 5513 5513 5514 5514 5514 5513 5513 5513 5512 5512 5511 5511 5510 5509
5429 5435 5441 5447 5452 5456 5461 5465 5469 5473 5477 5480 5483 5485 5488 5490 5492 5494 5496 5498 5499 5500 5501 5502 5502 5503 5503 5503 5503 5503 5502 5501 5500 5500 5499 5498 5498 5497